Wind_Speed
36 37 38 38 38 39 39 40 41 41 43 45 45 45 46 47 47 48 48 45 42 40 37 32 31 32 31 30 28 26 25 23 22 23 23 23 24 24 23 23 22 18 16 18 21 21 20 20 20 19 19 18 18 17 15 13 11 7 5 6 8 11 14 17 18 19 21 22 23 22 22 21 20 21 23 24 24 24 23 21 20 21 20 18 16 15
37 37 39 39 39 39 40 40 41 42 44 45 45 45 47 47 47 49 50 49 45 41 37 31 31 32 29 28 26 24 24 23 22 22 22 23 24 24 23 24 25 22 19 18 19 21 19 20 20 19 18 18 18 17 15 14 13 10 6 5 7 10 14 16 17 16 18 21 22 23 22 22 22 22 23 25 26 25 24 22 22 23 23 20 18 17
39 38 40 40 40 41 41 42 41 42 44 46 47 47 48 49 49 50 52 52 49 44 39 31 30 32 29 27 25 24 23 21 22 22 22 22 23 25 25 26 29 28 24 20 19 20 20 19 20 19 18 17 17 17 16 15 14 12 9 8 8 10 13 16 16 14 15 19 22 22 23 24 23 23 23 25 27 27 26 24 24 25 24 22 21 19
41 40 41 42 42 42 43 44 43 43 44 47 50 49 48 50 51 51 54 55 53 49 42 32 31 34 32 28 26 24 24 21 21 21 21 20 21 24 27 30 32 32 28 23 19 20 21 20 20 19 19 17 17 17 16 15 14 13 12 10 10 11 14 15 15 14 14 17 20 23 23 24 25 24 24 25 27 28 27 26 25 25 24 23 23 22
44 42 42 43 43 43 44 47 46 45 45 47 52 52 49 51 52 52 54 56 56 55 47 34 34 39 37 32 29 26 24 22 20 20 21 21 20 22 26 30 32 33 31 26 22 20 21 22 20 19 19 18 17 17 17 16 14 13 12 11 11 12 14 15 14 13 13 15 19 23 24 25 25 25 25 25 26 27 27 27 27 26 25 24 24 24
45 44 44 44 44 44 45 48 49 47 46 47 52 54 51 51 52 53 55 56 56 57 53 39 35 42 41 35 32 29 26 23 20 18 19 21 21 21 25 29 32 33 33 30 25 21 21 23 22 20 18 18 18 18 17 16 15 13 12 11 11 12 14 16 15 13 12 13 16 21 24 25 25 26 26 26 26 26 27 28 28 27 26 25 24 24
45 45 45 45 46 46 46 48 51 51 48 47 52 55 53 53 53 54 56 56 55 56 55 46 38 41 44 39 33 29 28 26 22 19 17 19 21 22 24 27 31 33 34 33 29 25 23 23 23 21 18 17 18 19 18 17 15 14 12 12 12 13 15 17 17 15 13 13 14 18 22 24 25 25 25 26 26 26 27 28 28 27 27 26 25 24
45 45 46 47 47 48 48 49 51 53 51 50 53 55 55 55 54 55 56 56 56 54 54 51 42 38 41 42 37 31 29 27 25 23 19 17 18 22 25 27 30 33 35 35 33 30 26 24 24 23 20 18 18 20 19 17 16 14 13 12 13 14 16 18 19 19 17 15 14 15 19 22 24 25 25 26 26 26 26 27 27 27 27 28 26 25
46 46 48 49 49 50 50 50 52 54 53 52 54 55 55 56 56 57 57 56 57 55 53 52 46 38 38 41 40 35 31 28 26 25 23 19 16 18 23 27 31 34 36 36 35 34 29 25 24 24 22 21 20 20 20 18 17 16 14 13 13 13 16 18 19 21 20 18 16 15 17 20 22 24 26 26 27 27 26 27 28 27 27 28 28 26
47 47 49 51 51 51 50 51 53 55 55 55 56 56 56 57 57 58 58 58 58 56 53 54 49 41 37 39 40 38 35 31 29 28 27 24 20 17 18 23 28 34 37 37 36 36 32 26 24 25 25 25 23 21 20 20 20 18 17 16 14 13 14 16 18 20 21 21 19 18 17 19 21 23 25 27 28 28 27 27 28 28 28 28 28 27
49 48 50 53 54 53 51 52 54 55 56 56 57 58 58 58 59 59 59 60 60 56 54 54 51 46 39 37 39 40 38 35 32 31 30 29 26 23 19 19 22 28 34 37 36 36 34 28 24 26 28 27 25 23 21 22 22 21 19 18 16 13 12 13 16 18 20 22 22 22 21 21 22 23 25 26 28 28 28 28 29 30 29 29 28 27
49 49 51 54 56 55 54 54 55 56 56 57 59 59 58 59 61 61 61 62 61 57 55 54 51 48 42 39 40 40 39 38 36 34 32 31 30 28 24 21 20 23 28 33 34 35 35 29 25 27 30 29 27 24 22 23 25 25 22 20 18 15 13 12 13 15 17 20 22 24 24 24 24 25 26 27 27 28 29 29 29 29 29 30 30 29
51 52 54 56 58 58 57 57 57 57 58 59 61 61 61 62 63 63 63 64 63 59 57 55 52 49 45 43 41 40 39 38 38 38 36 34 32 30 29 26 24 22 23 27 31 34 35 31 27 28 31 31 28 25 23 25 27 28 26 22 19 18 15 13 12 12 13 16 19 22 24 25 26 27 28 29 29 29 29 29 29 29 29 30 31 32
54 55 57 58 60 61 61 61 60 59 61 63 64 64 65 67 67 66 66 66 64 61 58 56 53 50 47 46 43 41 40 39 39 39 39 37 35 33 32 31 29 25 23 23 27 32 35 33 30 31 33 32 30 27 26 26 28 30 29 24 21 19 17 15 13 10 10 12 14 17 20 22 25 26 28 30 30 30 30 30 30 30 31 31 32 33
56 57 58 60 61 62 63 64 64 63 64 66 66 67 69 71 72 70 69 67 66 63 59 57 55 52 49 48 46 44 43 41 41 40 40 39 38 37 36 35 35 32 27 24 23 28 33 34 32 34 35 33 31 30 30 29 29 31 30 27 23 21 19 17 15 13 11 12 12 13 15 17 20 22 25 28 29 31 31 31 31 31 32 33 33 34
58 58 59 61 63 64 64 65 66 66 68 69 69 70 72 75 77 76 73 71 69 65 60 57 57 54 51 50 49 47 46 45 44 43 42 41 40 39 39 38 39 37 33 29 25 25 29 33 34 35 37 35 33 34 34 33 32 32 31 30 27 24 21 21 21 20 18 18 17 14 11 12 13 16 20 24 27 29 31 31 32 32 32 34 34 35
59 59 61 63 65 66 66 66 66 67 69 71 72 73 76 78 80 80 78 75 74 70 63 59 58 55 53 51 50 50 50 49 48 46 45 44 42 41 41 41 41 41 40 36 31 26 27 34 36 36 38 38 36 36 37 36 36 35 33 33 33 29 25 25 26 26 25 23 21 17 13 10 9 10 13 17 22 25 28 30 31 32 33 34 35 35
62 61 62 65 66 68 69 69 69 69 70 71 74 76 79 81 82 82 81 79 78 75 68 63 61 58 55 52 51 52 52 51 50 49 49 47 46 44 44 44 44 44 43 41 35 28 26 33 39 39 39 39 38 37 39 40 39 38 36 36 37 34 29 26 26 27 26 26 23 16 11 8 5 7 10 13 17 20 23 26 28 30 32 33 34 35
65 63 63 66 68 70 71 71 71 72 72 74 77 80 82 84 83 83 83 83 82 80 73 66 64 61 57 55 54 54 53 51 51 52 52 51 50 48 46 46 45 44 42 38 33 29 27 31 39 44 43 41 41 40 42 44 42 40 39 39 39 37 33 28 27 28 26 23 19 13 10 11 13 15 16 15 16 19 21 23 25 26 29 30 32 33
69 68 66 67 70 71 72 73 74 74 75 77 81 84 86 86 85 84 84 85 85 83 78 71 67 63 61 59 57 56 55 54 54 54 55 54 53 50 49 48 46 43 39 35 32 30 29 31 36 45 48 46 46 47 48 49 46 43 42 43 43 40 37 32 29 31 29 23 19 22 26 30 31 29 24 20 18 18 19 21 22 23 25 27 29 31
72 72 71 70 72 73 74 75 76 77 78 80 83 86 87 88 88 88 86 86 87 86 82 77 71 66 64 63 60 59 58 58 58 58 58 58 55 52 51 50 49 45 40 37 35 34 33 33 35 42 50 52 51 52 53 52 50 47 45 46 47 46 43 39 33 33 34 32 31 36 41 43 41 36 30 26 24 22 19 18 17 17 18 20 23 27
75 76 75 74 75 76 77 79 80 81 82 83 84 85 86 87 89 91 89 88 89 89 86 83 78 71 67 66 65 63 62 61 61 62 63 62 59 55 54 53 53 49 42 40 41 41 38 37 38 40 48 56 56 55 54 54 53 52 50 50 51 51 49 44 38 35 37 39 40 42 45 46 44 40 36 36 33 29 26 22 19 18 17 16 17 19
79 80 79 78 77 78 80 81 83 85 86 86 86 86 87 87 89 90 90 89 90 91 89 88 85 79 75 73 72 70 68 67 66 66 67 66 64 60 57 57 57 53 47 45 47 47 42 40 41 41 45 54 59 58 56 55 56 56 56 55 56 57 55 48 41 37 39 43 46 46 45 45 44 42 40 40 39 37 34 29 26 23 21 19 17 16
83 85 84 82 80 81 83 84 86 88 89 89 89 89 89 90 90 90 90 90 90 89 89 90 88 83 82 82 80 78 76 74 73 71 70 69 67 64 61 59 59 57 53 49 47 47 44 41 42 43 44 48 56 61 59 57 58 59 60 61 60 61 59 52 44 40 40 45 50 49 46 45 45 44 43 41 41 41 39 35 32 29 25 22 20 19
87 88 89 87 84 83 84 87 90 91 92 92 92 92 93 94 93 93 93 94 92 89 89 90 87 84 85 86 85 85 84 81 79 75 73 71 69 67 64 61 60 60 56 51 45 44 45 44 42 44 45 45 49 56 59 58 60 61 62 64 64 64 63 56 49 45 43 45 51 51 49 47 46 47 47 45 43 43 42 40 38 34 29 27 25 23
89 91 92 92 90 88 87 90 92 93 94 94 95 96 97 97 97 97 97 98 96 94 91 89 89 87 86 85 86 87 88 87 85 81 77 74 71 69 66 64 62 61 59 55 48 44 46 48 46 44 46 46 46 50 54 56 59 63 66 68 67 66 66 61 54 50 47 48 51 53 51 50 48 48 49 47 46 45 45 44 42 40 36 33 31 29
93 94 95 95 94 94 93 95 96 97 96 96 97 98 99 98 99 100 101 101 100 98 92 89 93 94 88 86 90 92 92 92 90 87 84 79 74 70 67 67 66 63 61 59 54 48 49 53 51 46 45 47 50 53 54 55 60 66 70 72 71 68 67 65 61 57 53 52 54 55 54 53 52 51 50 48 47 47 47 46 44 43 42 40 36 34
97 97 99 99 98 98 99 101 102 103 101 100 100 100 100 100 101 103 103 102 104 103 95 90 96 98 92 90 95 97 97 95 93 91 88 84 78 72 69 69 69 67 64 61 57 52 53 57 57 52 50 51 55 60 61 60 63 68 71 72 72 70 69 69 67 64 59 57 58 58 57 56 55 54 53 51 49 49 48 48 46 44 44 44 42 39
101 100 101 103 101 100 103 107 109 108 106 104 103 104 104 104 104 104 105 105 107 108 101 95 97 98 95 95 98 101 102 99 95 93 91 87 82 77 73 70 69 68 66 65 62 57 55 60 61 57 56 58 60 63 67 68 68 70 71 73 74 73 72 72 71 69 65 61 61 62 60 59 58 57 56 55 53 51 49 50 49 46 44 45 45 42
105 104 105 106 103 101 104 111 113 112 110 108 106 107 108 109 108 107 107 108 109 109 106 103 102 99 97 98 102 104 104 101 98 94 91 88 84 80 76 72 70 69 68 67 67 63 59 60 62 60 60 63 64 64 66 70 72 73 74 76 78 77 74 73 73 73 70 66 65 65 63 62 62 61 60 59 57 55 52 51 52 50 47 46 46 45
110 110 111 112 109 105 107 114 116 114 113 110 108 109 111 112 111 110 110 110 110 111 109 108 107 103 101 103 105 104 103 101 98 93 89 87 83 80 76 73 70 70 69 68 69 68 64 62 64 66 66 68 70 67 66 69 72 74 77 80 82 82 78 75 75 76 74 71 68 68 67 65 65 64 64 63 62 59 56 54 54 53 50 49 48 47
113 114 114 117 115 110 111 117 119 117 115 112 111 112 113 114 114 112 111 111 113 113 111 110 110 106 104 104 104 102 100 98 96 92 88 84 81 79 75 71 69 68 69 69 69 70 69 67 69 72 73 76 78 76 72 74 77 78 80 83 85 85 83 79 76 77 77 75 72 71 69 68 67 67 67 66 66 64 61 58 56 55 53 52 52 50
115 116 117 119 118 114 114 119 121 119 115 113 114 116 114 114 114 111 111 113 114 114 112 110 109 107 104 102 100 97 94 91 90 89 86 82 79 77 74 70 67 66 67 68 69 70 71 72 74 77 79 81 83 83 81 81 83 85 86 86 86 85 84 81 78 76 77 77 75 73 72 70 69 69 69 68 68 68 66 63 60 58 55 54 55 53
117 119 119 121 121 118 117 120 121 118 114 114 117 117 114 113 112 110 111 113 113 111 110 108 107 105 102 98 95 91 87 84 84 84 83 80 76 73 71 69 66 65 65 65 67 68 70 72 76 79 81 82 83 86 88 86 86 89 91 90 88 86 84 81 79 76 76 77 76 74 74 73 71 71 72 71 70 70 69 67 65 63 59 56 56 57
120 122 123 123 124 122 120 121 120 116 113 115 118 116 111 110 111 111 111 111 110 108 107 107 106 103 99 95 91 86 81 79 80 81 80 78 74 71 68 66 65 65 64 63 64 65 67 70 73 76 81 83 83 87 91 92 92 92 92 93 92 89 86 83 80 77 76 76 76 75 75 75 74 73 73 73 72 71 71 70 68 67 65 60 57 58
125 126 126 126 126 125 124 122 119 116 114 114 114 112 107 107 109 111 110 110 108 107 106 105 103 100 97 93 89 85 79 76 77 79 78 75 72 69 66 64 63 63 63 62 62 62 64 67 69 74 81 86 86 88 92 97 99 97 95 94 94 92 89 86 83 80 77 76 75 75 75 76 77 76 75 75 75 73 73 73 71 70 69 65 60 59
128 128 129 129 128 127 127 125 122 119 115 111 110 108 107 108 109 109 110 110 108 106 104 101 99 96 93 91 87 83 79 76 76 76 74 72 70 68 66 64 62 61 62 62 60 60 62 65 68 74 80 84 88 92 96 101 104 102 99 97 96 94 92 90 87 83 80 78 76 76 75 75 77 79 77 76 76 76 76 76 75 74 73 70 64 61
128 129 130 131 130 129 131 129 125 120 114 109 108 109 109 111 111 112 112 108 103 100 98 96 93 90 88 87 85 81 78 77 76 74 71 69 69 68 65 63 62 61 61 61 59 58 61 65 69 74 79 82 88 96 103 106 106 103 100 100 99 97 95 93 91 87 84 82 80 78 76 75 75 77 79 79 79 79 79 79 79 78 76 74 69 64
128 130 131 131 131 132 133 131 125 118 113 109 109 111 112 113 113 112 109 102 95 92 91 89 88 85 82 81 80 77 76 76 74 71 68 66 66 66 64 62 61 61 62 62 60 59 62 67 70 74 80 85 90 97 103 106 106 103 100 100 101 100 98 97 95 92 89 86 84 82 79 77 75 75 77 80 81 81 81 82 82 81 80 77 74 70
129 130 131 132 133 134 133 129 122 117 113 112 113 114 114 113 110 105 100 94 88 86 86 84 82 79 77 75 72 71 72 72 70 68 65 62 62 63 62 59 59 61 63 64 62 62 64 68 72 76 81 86 90 94 98 101 104 104 102 102 103 103 101 100 98 96 94 91 88 85 83 82 79 77 77 79 81 83 84 85 86 85 83 81 79 75
129 131 133 133 134 133 130 124 119 116 114 114 117 116 113 109 103 97 92 86 81 79 80 79 77 75 73 69 67 67 67 66 66 65 62 59 59 60 59 58 59 61 63 64 64 63 64 67 72 76 80 84 86 88 92 95 99 101 102 104 106 106 105 102 100 98 97 95 93 90 88 86 85 83 82 82 82 84 86 88 89 89 88 86 83 80
131 133 134 132 131 128 123 119 117 115 114 116 116 112 106 102 96 90 86 81 75 71 72 73 73 72 69 65 63 64 64 62 61 61 59 57 57 57 56 57 59 62 63 64 65 64 63 66 70 74 78 81 83 84 87 91 94 97 99 102 105 106 105 104 103 102 100 99 97 95 93 91 89 88 87 86 85 86 87 90 92 93 92 90 88 85
134 136 134 129 125 122 118 116 116 116 115 114 110 104 98 95 90 84 79 75 69 65 65 67 67 66 64 61 59 60 60 59 58 57 56 56 56 56 55 55 59 62 62 62 64 65 65 66 69 73 77 80 82 83 84 87 90 93 96 99 101 102 102 103 104 105 104 103 101 99 97 95 94 92 90 90 89 88 89 91 94 96 96 94 93 90
136 135 131 125 119 118 117 116 116 116 113 108 104 97 91 88 85 80 74 69 64 61 60 61 62 61 58 56 55 55 55 56 56 54 54 54 55 55 55 55 57 60 62 62 64 67 68 68 70 73 76 79 80 81 82 84 86 89 93 95 97 98 100 101 102 104 105 105 105 104 102 100 98 96 94 93 92 91 91 93 95 97 99 98 97 95
136 131 125 119 116 115 116 115 113 110 105 100 96 91 85 82 79 75 70 64 60 58 56 56 58 58 55 52 51 50 50 52 53 52 52 52 53 54 55 55 57 59 61 62 63 65 67 68 69 72 75 77 78 80 80 81 81 82 85 88 91 93 96 98 100 101 102 104 104 105 104 102 101 99 98 96 95 94 94 95 97 98 100 101 100 98
132 126 119 115 114 114 114 112 107 102 96 92 88 84 79 75 72 69 65 60 56 54 52 52 54 55 52 49 48 46 46 48 49 50 50 50 51 52 54 55 57 59 61 62 62 63 65 67 69 72 73 74 75 76 76 75 74 74 76 80 85 88 91 95 98 100 101 101 101 102 102 102 101 100 100 98 97 96 96 97 98 100 101 102 102 101
126 120 115 114 113 112 109 105 100 95 90 85 81 77 73 69 65 62 59 56 53 50 49 49 50 51 49 46 45 44 43 44 45 47 48 48 49 51 52 54 56 59 60 61 62 63 65 67 69 70 71 71 71 72 72 71 71 71 72 75 80 84 88 92 96 98 100 101 101 100 100 101 101 101 101 100 99 98 98 99 100 101 102 102 103 103
120 116 114 114 111 107 101 97 93 89 85 80 74 70 65 62 60 58 55 52 49 47 46 46 46 47 46 44 42 42 42 41 41 43 45 46 46 48 50 52 55 58 59 60 61 62 64 65 66 67 69 69 69 68 68 68 69 70 70 72 77 81 85 89 93 96 99 100 100 100 100 100 101 101 101 102 102 101 101 101 101 102 102 102 103 104
116 114 113 110 106 101 95 90 86 83 80 76 71 65 59 55 53 53 51 49 47 44 43 44 44 44 43 42 40 39 40 40 39 39 41 42 43 45 47 50 52 55 56 57 58 59 60 61 62 63 65 66 67 67 66 67 69 70 70 72 75 79 82 86 89 93 96 98 99 100 101 101 101 101 102 103 103 103 103 102 102 102 102 102 103 104
115 112 109 104 100 96 91 86 81 75 72 70 67 63 58 52 48 47 46 45 45 43 41 41 42 42 41 40 38 36 37 39 39 37 38 40 41 42 44 46 48 50 53 54 55 55 56 57 58 59 60 62 64 64 64 65 66 67 68 70 73 76 79 82 85 88 91 95 98 99 100 101 102 102 102 102 103 103 103 103 102 102 101 102 104 105
112 108 103 98 95 92 87 82 76 70 65 63 61 59 55 51 47 45 42 40 40 41 40 39 39 40 40 39 37 35 35 37 37 35 35 38 40 40 41 42 44 47 49 51 52 53 53 54 55 56 57 59 60 60 61 62 62 63 64 67 71 74 76 79 82 84 86 90 94 98 100 101 101 102 103 103 103 103 103 103 104 103 102 103 104 105
Wind_Direction
360 355 356 358 357 357 358 359 360 358 356 356 358 358 357 357 356 359 0 358 359 355 349 348 345 343 344 341 331 316 307 302 297 293 290 288 288 288 289 290 291 298 311 314 312 313 314 311 306 305 309 314 319 319 313 303 296 292 286 258 221 201 196 197 200 206 213 214 214 217 218 217 215 216 219 221 225 225 222 221 224 228 231 230 226 223
358 353 352 355 353 354 355 356 357 355 354 353 356 357 355 356 354 354 357 356 356 355 351 348 344 340 339 340 338 324 311 303 298 293 289 284 281 281 283 287 289 290 297 304 307 307 305 304 303 301 301 305 309 313 313 306 296 286 267 243 219 202 193 193 197 204 213 218 218 216 218 218 216 216 219 222 226 227 226 226 226 229 231 231 228 226
356 351 348 350 350 350 351 353 354 352 351 351 354 356 353 354 353 350 352 353 353 354 352 349 344 339 337 338 340 334 321 306 297 293 289 283 277 275 274 278 284 284 285 291 299 304 301 297 298 297 293 294 299 305 309 309 301 290 273 244 218 203 195 194 197 203 212 220 224 221 219 218 217 217 219 221 226 229 229 229 229 231 233 233 228 226
353 350 345 346 345 345 347 351 353 350 348 348 351 355 352 352 353 349 348 349 349 351 352 352 347 341 339 340 344 343 334 318 302 292 287 282 276 273 270 270 276 279 280 283 290 300 301 294 290 290 287 284 289 296 302 308 305 294 278 256 229 208 198 196 201 206 208 215 224 227 223 219 218 219 221 223 226 229 230 230 231 231 233 233 227 224
348 348 343 343 342 342 342 347 352 349 346 345 348 353 351 349 351 349 347 347 346 347 350 352 349 343 339 341 344 344 340 331 315 298 288 284 278 275 272 269 271 275 277 279 284 292 297 293 286 283 283 280 280 286 293 301 305 296 278 259 239 218 203 198 204 211 212 211 218 225 228 224 221 221 223 224 226 229 228 228 230 231 233 233 229 225
343 344 341 339 339 339 338 343 350 350 345 342 345 350 349 347 348 347 347 347 344 344 346 349 350 344 338 338 340 339 338 336 326 308 291 284 281 278 276 272 269 272 276 277 278 282 289 291 285 279 279 278 275 278 284 291 298 296 280 257 239 225 212 204 205 211 215 213 213 219 226 227 225 225 227 227 227 227 226 225 227 229 230 231 232 230
340 340 338 337 336 336 336 338 345 348 346 340 342 346 347 346 346 344 346 346 345 344 344 344 347 345 338 334 335 334 334 334 332 324 306 289 282 279 278 275 271 272 275 276 275 275 279 284 282 275 274 276 275 274 275 280 285 288 281 262 239 225 218 211 207 208 212 216 215 216 221 226 228 229 230 230 229 227 225 223 224 226 227 229 231 234
338 337 336 336 334 334 334 334 339 344 344 340 340 343 344 344 343 342 344 344 344 345 342 340 343 344 337 331 329 329 330 330 331 332 326 308 289 280 277 276 274 275 276 276 274 272 271 276 278 272 270 271 273 272 268 269 273 274 272 266 249 231 223 219 214 211 209 211 216 218 219 223 228 232 233 234 233 229 225 224 224 226 228 229 231 233
337 336 334 335 334 333 331 330 333 339 340 338 339 340 340 341 340 340 342 342 343 344 341 338 340 341 337 329 326 325 326 326 327 328 330 328 315 294 282 278 276 276 277 277 274 271 269 272 275 269 265 266 266 267 263 259 261 262 261 259 253 240 230 227 224 222 218 212 212 216 219 222 226 232 236 237 237 234 228 226 227 228 229 229 230 233
335 334 333 334 335 333 330 327 329 334 335 335 336 337 337 338 337 338 339 339 342 343 339 337 338 338 337 330 323 323 324 324 324 324 326 328 328 324 306 290 281 276 277 277 275 273 271 271 273 266 260 260 262 262 260 253 251 252 251 250 250 245 237 232 230 229 229 225 219 216 216 219 224 230 235 238 239 239 235 231 229 230 231 230 230 233
332 330 330 332 334 333 330 326 327 330 331 331 333 333 333 334 334 336 337 337 341 341 337 337 337 336 336 329 321 321 322 322 322 320 321 323 324 326 324 313 298 285 279 277 275 274 272 271 271 262 254 255 257 257 255 250 248 246 245 244 245 245 242 237 232 229 231 232 230 225 220 217 219 224 231 236 239 241 241 237 233 233 234 234 231 230
330 328 327 329 332 333 330 327 327 328 328 328 329 330 330 330 332 333 334 336 339 339 336 336 335 334 334 327 321 320 320 320 320 317 316 319 320 321 321 320 315 300 286 278 274 273 270 268 267 257 250 251 252 253 252 247 245 244 243 240 237 236 235 234 233 230 228 229 231 231 228 223 219 220 224 231 236 239 241 241 238 235 235 237 234 230
330 327 327 328 330 330 329 328 327 326 325 326 327 327 327 328 329 331 332 334 337 337 335 334 334 333 331 326 322 320 318 318 316 314 313 314 315 317 317 316 316 312 299 284 274 270 267 265 262 252 247 249 249 248 248 246 243 241 240 239 233 228 227 228 231 233 232 231 231 232 233 232 228 225 224 227 231 236 239 241 240 237 236 238 240 239
329 328 327 327 327 328 328 327 326 325 323 325 326 325 325 326 328 330 330 332 334 335 334 333 332 331 329 325 322 319 317 315 312 311 312 312 312 313 314 312 311 313 311 296 278 268 263 262 260 251 245 246 246 245 243 243 243 240 238 236 230 224 221 221 222 227 238 242 238 234 234 235 235 233 231 230 231 233 236 240 242 240 238 238 242 246
329 328 326 325 325 326 327 326 326 324 322 323 324 323 324 325 326 328 329 330 332 332 333 331 329 330 327 323 321 318 316 312 310 309 309 309 309 310 310 308 307 308 310 307 292 273 261 257 257 252 247 244 242 241 240 240 241 240 236 231 225 222 220 218 219 223 238 250 253 246 238 235 236 237 236 235 234 234 235 237 241 242 242 241 242 246
329 328 326 324 324 324 325 325 325 323 322 322 322 321 323 323 324 326 327 328 329 330 332 329 327 328 325 322 319 316 313 311 310 309 307 306 306 305 305 303 303 304 305 306 302 286 266 256 253 251 248 245 240 239 240 239 239 239 236 228 221 224 231 235 237 239 242 249 255 259 252 241 238 237 237 237 236 235 235 236 237 240 241 242 243 245
329 328 325 324 323 323 323 323 323 322 321 321 320 320 321 322 323 324 325 327 327 328 330 327 325 324 322 320 317 313 311 310 309 307 305 304 303 301 300 300 300 302 303 303 301 292 270 255 249 248 249 247 243 242 242 242 239 236 234 229 224 228 240 248 250 251 252 253 253 257 260 251 239 236 234 236 235 234 234 234 234 235 236 238 239 241
328 327 325 323 322 322 322 322 321 321 320 319 318 319 319 320 322 323 323 325 325 325 327 325 323 321 319 318 315 310 310 308 306 305 303 301 300 298 299 299 300 302 302 300 297 290 272 254 245 244 247 247 246 246 244 243 240 236 233 229 226 229 237 246 253 255 255 257 255 256 264 267 253 240 229 223 224 224 223 224 226 228 229 230 232 234
327 327 325 323 322 321 321 321 320 319 319 318 318 319 319 320 321 321 322 323 323 322 324 323 321 319 317 316 313 310 308 305 303 301 299 298 298 299 298 298 299 301 300 295 292 287 273 258 247 241 241 245 246 243 241 241 240 239 236 230 226 228 232 240 252 255 250 252 260 258 252 252 246 239 234 225 219 216 212 211 213 217 220 222 224 226
325 325 325 323 321 320 320 319 319 318 318 317 317 318 319 320 319 319 321 322 321 320 321 320 319 318 316 315 313 309 306 303 300 298 297 297 298 298 296 294 294 295 293 286 286 284 270 257 250 242 237 239 241 239 239 242 242 240 239 235 230 230 233 237 246 252 242 230 235 238 232 233 234 231 231 233 234 232 223 215 212 214 217 219 220 222
323 323 325 323 321 320 319 318 318 317 316 316 317 318 319 319 318 318 320 321 320 319 318 317 316 317 316 313 311 307 304 302 299 297 296 296 297 296 292 290 289 290 285 276 278 284 271 252 246 243 237 236 238 239 241 244 244 242 242 239 234 232 236 237 237 244 240 222 218 228 229 229 230 227 226 232 241 247 244 235 229 227 227 229 230 230
320 321 324 323 321 320 318 318 317 316 316 317 317 317 317 316 317 318 320 321 319 317 317 315 314 315 315 312 309 306 304 301 299 298 297 297 297 295 291 287 287 288 283 273 275 283 276 254 242 241 238 236 237 239 241 243 244 246 247 244 240 235 234 235 231 233 238 229 221 227 230 229 229 227 226 229 235 241 245 245 245 245 246 248 248 246
318 320 322 323 321 319 318 317 316 316 316 317 317 317 316 316 317 317 319 320 317 315 316 314 312 314 315 311 309 307 304 302 300 299 298 298 298 295 291 287 286 285 281 274 275 278 273 257 244 240 238 236 236 238 240 241 243 245 246 246 245 238 231 230 228 225 232 234 229 230 234 233 231 230 230 231 232 235 237 240 244 245 246 251 253 251
317 319 321 322 321 319 318 317 316 316 316 316 317 317 316 317 317 317 318 317 314 313 314 311 311 314 314 311 310 309 306 304 302 300 299 298 297 295 291 287 283 282 279 274 272 272 266 255 246 243 240 238 237 237 237 240 242 243 244 244 244 237 228 226 227 221 224 233 234 234 236 237 236 234 234 235 236 236 236 237 240 241 241 245 248 247
316 318 319 319 319 319 318 316 316 316 316 316 317 317 317 318 318 318 317 314 312 313 311 309 311 314 312 310 310 308 306 304 302 300 298 296 295 293 289 284 279 277 275 270 266 265 261 254 247 243 242 240 239 239 238 240 243 244 245 245 243 237 228 224 226 221 218 227 234 236 238 238 237 237 236 236 237 240 239 238 240 242 242 243 247 249
315 316 316 316 318 318 317 316 315 315 315 316 317 318 318 318 318 317 315 312 312 312 310 310 313 312 309 308 308 305 304 302 301 299 297 294 292 289 286 282 276 271 269 266 260 255 251 249 245 242 241 241 241 241 239 240 243 244 245 245 243 237 231 225 224 221 218 221 229 235 238 237 235 235 236 235 236 238 239 237 239 242 244 245 249 252
313 315 315 315 317 318 317 316 315 314 315 316 318 318 318 318 317 315 313 312 312 311 310 313 312 308 307 308 306 303 301 300 299 297 295 291 289 286 282 279 275 270 266 263 258 251 243 241 241 239 239 240 241 240 239 239 242 242 243 244 243 239 236 231 226 223 221 221 225 230 234 236 234 234 234 233 234 236 237 236 237 240 242 244 248 251
313 315 314 314 316 317 317 316 315 315 316 317 319 319 318 317 315 312 312 312 312 310 310 311 308 306 307 307 304 301 299 298 296 295 293 291 288 284 279 276 275 272 268 262 257 252 242 236 235 235 235 237 239 238 237 237 240 240 240 241 241 239 238 236 231 226 222 222 224 227 231 233 233 233 232 230 231 234 237 238 239 239 239 241 244 248
313 314 313 313 315 317 317 316 315 315 317 319 320 319 317 315 313 312 313 313 311 310 309 308 305 304 305 304 301 298 296 296 295 294 292 291 288 283 278 274 271 269 267 263 258 254 245 236 234 232 232 236 240 239 239 239 240 241 241 241 240 237 235 235 234 230 225 223 224 227 230 231 231 232 232 230 229 232 236 240 242 241 238 238 240 244
313 314 313 313 315 317 317 315 314 316 318 319 320 319 316 313 312 313 314 312 310 308 307 305 303 303 304 301 297 296 295 295 294 293 291 289 286 282 277 273 268 264 261 259 256 254 248 240 236 232 230 234 239 240 241 242 243 242 242 242 241 238 234 232 233 232 228 225 224 226 229 231 230 230 230 230 228 228 231 237 242 243 240 238 239 241
313 313 314 314 315 318 318 315 314 316 317 319 320 317 313 312 314 314 313 310 308 306 305 304 302 302 302 299 296 295 295 293 291 290 288 286 284 281 277 273 268 263 258 255 251 250 247 240 235 232 229 231 235 238 239 241 243 244 244 243 241 239 236 232 230 231 230 227 225 226 228 229 230 230 230 229 228 227 227 231 237 243 243 241 240 240
312 313 314 314 315 318 317 315 315 316 317 319 318 315 313 313 314 312 310 308 306 304 303 303 302 302 300 297 295 294 291 290 289 287 286 284 282 279 276 272 267 263 258 254 249 246 243 239 234 231 230 231 234 236 237 238 239 241 242 242 241 239 237 233 230 229 230 229 227 227 227 228 229 230 230 230 229 228 227 227 231 238 242 243 242 241
312 313 314 314 315 317 316 315 315 315 317 318 316 313 314 314 312 310 307 306 304 303 302 302 301 299 297 295 293 291 289 288 286 285 282 280 278 276 274 271 267 262 257 253 249 245 242 238 234 232 231 232 234 236 237 236 236 238 239 241 241 240 238 235 231 229 229 230 229 228 228 228 228 229 230 230 230 229 229 228 228 232 237 241 242 241
313 313 314 314 315 316 316 314 314 315 317 316 314 313 314 312 309 307 305 304 303 302 301 299 297 295 293 292 290 288 287 285 283 280 279 277 275 273 272 270 267 262 257 251 248 245 241 239 236 234 233 233 234 235 236 236 235 237 240 241 242 242 240 237 233 230 228 229 230 230 229 229 228 228 229 230 230 230 230 230 229 230 232 235 240 242
313 313 314 314 315 315 315 314 314 314 316 315 313 313 313 309 307 305 303 302 300 299 297 295 294 292 291 289 287 286 284 282 279 277 275 274 274 272 271 269 266 263 259 253 248 243 240 238 236 235 234 234 232 233 235 235 235 236 238 240 241 241 241 239 235 233 229 228 229 230 230 230 229 229 228 229 230 230 230 230 230 230 231 231 234 239
313 313 314 314 314 315 315 314 314 314 314 314 313 312 310 306 304 302 300 299 297 296 295 293 291 291 289 288 286 285 283 280 277 274 273 273 273 271 269 267 264 262 259 256 251 245 240 236 234 234 234 233 231 231 232 234 234 233 234 236 238 239 240 239 237 234 231 228 228 229 230 231 230 229 229 229 230 230 230 230 230 230 231 232 231 234
313 313 313 314 315 316 315 315 314 314 314 314 313 310 307 304 301 299 298 297 296 295 294 292 291 290 288 287 286 284 282 279 275 273 273 272 270 268 266 264 262 259 257 254 251 246 242 237 233 231 232 232 230 230 230 232 232 231 231 232 234 236 238 239 239 236 233 230 230 230 231 232 231 230 229 229 230 230 230 230 230 229 229 231 231 230
312 313 313 314 316 316 315 314 314 314 314 313 311 307 304 302 300 298 297 297 297 295 294 292 291 289 288 287 285 284 281 277 274 272 271 268 266 264 263 261 259 258 255 252 248 245 242 239 234 231 231 230 229 228 229 229 230 230 230 231 232 233 235 238 239 238 236 234 232 231 231 231 230 230 229 229 229 230 230 230 230 229 228 229 230 228
313 313 314 315 316 316 315 314 314 314 312 311 308 304 302 301 300 299 298 298 297 295 293 291 290 288 287 285 283 282 279 277 275 273 270 267 265 262 260 259 257 256 253 251 246 241 238 237 235 232 230 229 228 228 228 229 229 229 229 230 232 233 234 235 237 238 237 236 234 232 230 229 229 229 230 229 229 230 230 229 230 230 228 228 229 228
313 314 315 316 316 315 314 314 314 312 311 309 305 303 302 301 300 299 298 297 296 294 292 290 288 286 284 282 280 278 276 275 274 273 270 267 263 260 258 255 254 252 251 249 246 241 237 235 234 233 232 231 229 229 229 229 229 229 228 229 230 232 233 234 235 237 237 236 235 232 230 229 229 229 229 229 229 229 230 230 229 229 229 228 228 228
314 314 315 315 315 315 314 314 312 311 309 307 304 303 303 302 301 299 298 296 295 293 290 289 287 284 282 280 278 276 273 272 271 270 269 265 261 258 255 252 249 248 248 248 247 243 240 237 236 235 236 235 234 232 231 231 230 230 229 228 229 230 231 232 234 235 236 236 235 233 231 230 230 230 229 229 228 228 229 229 229 229 229 229 228 227
314 314 315 315 315 314 313 311 310 308 307 305 304 304 304 302 301 300 298 297 296 293 290 287 285 283 282 280 277 274 272 270 268 267 266 263 259 255 252 249 247 245 245 245 245 244 241 239 238 238 238 238 237 235 233 232 231 231 230 229 229 229 230 230 231 233 234 235 235 234 233 232 231 231 231 230 229 228 228 228 229 229 229 229 228 227
314 314 315 315 315 313 311 309 308 307 306 305 305 305 304 303 302 301 299 298 296 293 289 285 283 282 281 279 277 274 271 269 267 265 263 260 257 254 249 246 244 245 244 242 243 243 240 238 238 238 238 239 239 238 236 234 232 231 231 230 229 229 229 229 230 231 232 233 234 234 234 233 232 232 231 231 230 229 228 228 228 228 228 228 228 228
314 315 316 315 314 312 310 309 308 307 307 307 306 306 305 304 302 301 299 298 296 292 287 283 281 279 278 276 274 272 270 267 265 263 260 258 256 252 248 243 242 242 243 241 240 241 240 238 236 236 237 238 239 239 238 236 234 232 232 231 230 229 229 229 230 230 231 231 232 234 234 233 232 231 231 231 230 229 229 228 227 228 228 227 227 228
315 316 315 314 312 310 309 309 308 308 308 307 307 307 306 304 303 301 300 298 295 291 287 283 280 278 276 274 272 270 268 266 264 261 258 256 254 251 247 243 240 239 240 240 239 240 240 240 238 237 237 238 239 240 240 239 239 237 236 234 233 231 230 229 230 231 231 231 231 232 233 233 231 230 229 229 230 230 229 228 227 227 227 227 227 227
316 316 314 313 311 310 309 309 309 308 308 307 307 307 306 304 303 301 300 298 295 291 288 284 281 280 278 275 272 269 266 264 262 260 257 255 252 250 247 243 240 238 238 238 238 238 238 240 240 239 238 238 238 240 241 242 241 241 239 237 235 233 231 230 230 230 231 232 231 230 231 231 230 229 228 228 229 229 229 228 228 227 227 227 227 227
316 315 314 312 311 311 311 311 310 309 309 308 308 307 306 305 303 301 300 298 295 291 288 284 282 280 279 277 273 270 266 263 261 259 257 254 252 249 247 244 241 239 238 237 237 236 237 237 238 239 240 239 238 238 240 241 241 240 239 237 235 234 232 230 230 229 230 231 231 230 229 229 230 229 229 228 227 228 228 228 228 227 227 227 227 226
316 315 313 313 312 312 312 312 311 311 310 309 308 307 306 305 304 302 300 298 295 292 289 285 282 280 278 276 273 270 266 263 259 257 257 255 253 251 248 245 243 241 240 238 237 236 237 237 237 238 239 240 240 238 237 238 239 239 237 235 234 234 232 231 230 229 229 230 231 231 230 229 229 229 229 228 227 227 227 228 228 228 227 227 227 226
316 314 314 314 313 313 313 313 312 311 310 309 308 307 306 305 303 302 301 299 296 293 290 287 283 280 278 276 272 269 267 264 259 255 254 254 253 252 250 248 246 245 243 242 240 239 238 238 238 238 238 239 240 239 237 236 236 237 236 235 234 233 233 233 231 230 229 229 229 230 231 231 230 229 229 229 229 227 227 227 228 228 228 228 228 227
315 315 315 315 314 314 314 313 312 311 310 309 309 308 308 308 306 303 302 300 298 294 291 287 283 280 278 275 272 269 266 264 261 256 251 250 250 250 250 249 248 246 245 243 242 241 240 239 239 238 238 239 239 239 238 237 236 236 236 235 235 234 234 234 233 232 230 229 228 229 230 231 231 230 230 230 230 230 228 228 228 229 229 229 229 228
316 316 316 315 315 314 314 312 311 311 310 309 309 309 309 310 309 306 304 301 298 295 291 287 283 281 278 276 272 269 266 264 262 258 252 248 246 245 246 247 247 246 245 243 242 240 239 239 239 239 239 240 239 239 238 238 238 237 235 234 234 235 235 235 235 234 233 231 229 229 229 230 231 232 232 231 231 231 230 230 229 229 229 230 230 230
Height
10765 10763 10760 10758 10756 10754 10752 10751 10749 10746 10744 10741 10739 10736 10734 10731 10728 10727 10726 10724 10723 10720 10717 10715 10712 10709 10707 10704 10701 10699 10699 10698 10698 10698 10698 10698 10697 10694 10693 10694 10694 10693 10692 10689 10685 10685 10685 10684 10683 10682 10681 10680 10680 10679 10679 10679 10678 10678 10678 10678 10679 10679 10680 10682 10683 10684 10686 10688 10690 10693 10695 10697 10700 10702 10704 10706 10708 10711 10714 10717 10720 10722 10723 10723 10724 10725
10764 10761 10759 10757 10755 10753 10751 10749 10748 10745 10743 10740 10738 10735 10733 10731 10728 10725 10725 10723 10722 10721 10718 10715 10711 10708 10707 10705 10701 10698 10696 10695 10695 10695 10695 10695 10695 10693 10691 10690 10691 10690 10690 10689 10685 10683 10683 10683 10681 10681 10680 10679 10679 10678 10678 10677 10677 10677 10677 10677 10678 10679 10680 10681 10682 10683 10684 10686 10688 10690 10693 10695 10697 10699 10702 10704 10706 10709 10712 10715 10717 10719 10720 10721 10722 10723
10762 10759 10757 10755 10753 10751 10749 10747 10746 10743 10741 10738 10736 10734 10731 10729 10726 10723 10721 10721 10720 10719 10716 10714 10711 10707 10705 10704 10701 10697 10694 10693 10693 10692 10692 10693 10693 10692 10690 10688 10687 10687 10687 10687 10685 10682 10681 10681 10680 10679 10679 10678 10677 10677 10676 10676 10676 10676 10676 10676 10676 10678 10679 10680 10681 10682 10683 10684 10686 10688 10690 10692 10694 10696 10698 10701 10703 10706 10709 10711 10714 10715 10717 10719 10720 10721
10759 10757 10754 10752 10751 10749 10746 10745 10743 10741 10738 10735 10733 10732 10730 10727 10725 10721 10717 10716 10715 10715 10714 10712 10709 10705 10703 10702 10700 10697 10694 10691 10690 10690 10689 10689 10690 10690 10689 10686 10685 10684 10684 10684 10683 10680 10678 10678 10678 10678 10677 10676 10676 10676 10675 10675 10675 10675 10675 10675 10675 10676 10677 10679 10680 10681 10681 10682 10683 10685 10687 10689 10691 10693 10695 10697 10700 10702 10705 10708 10710 10712 10714 10716 10717 10718
10755 10754 10752 10750 10748 10746 10743 10741 10740 10739 10736 10732 10730 10729 10728 10725 10723 10720 10717 10713 10710 10709 10710 10709 10706 10702 10699 10698 10697 10696 10694 10690 10688 10687 10686 10686 10686 10686 10686 10684 10683 10681 10680 10681 10680 10679 10676 10675 10676 10676 10675 10674 10674 10674 10674 10674 10674 10673 10674 10674 10674 10674 10675 10676 10677 10678 10679 10680 10680 10682 10683 10685 10687 10689 10692 10694 10696 10699 10702 10704 10707 10709 10711 10713 10714 10715
10751 10751 10749 10747 10745 10743 10740 10738 10736 10736 10734 10730 10726 10726 10725 10723 10721 10719 10716 10713 10709 10705 10704 10704 10703 10700 10696 10695 10694 10693 10692 10690 10687 10685 10683 10683 10683 10683 10683 10682 10681 10679 10678 10678 10677 10677 10675 10673 10672 10673 10673 10672 10673 10673 10673 10673 10673 10672 10672 10672 10672 10672 10672 10673 10674 10675 10676 10677 10678 10679 10680 10682 10684 10686 10688 10690 10692 10695 10698 10701 10703 10706 10708 10710 10712 10714
10749 10748 10746 10744 10741 10739 10737 10734 10732 10732 10730 10727 10723 10722 10722 10720 10718 10716 10714 10712 10709 10706 10702 10700 10700 10698 10693 10691 10691 10690 10689 10687 10685 10683 10681 10679 10679 10679 10679 10679 10678 10677 10675 10675 10674 10674 10673 10671 10670 10670 10671 10671 10671 10671 10672 10672 10672 10671 10670 10670 10669 10669 10669 10669 10670 10671 10673 10674 10675 10676 10678 10679 10681 10683 10685 10687 10689 10691 10694 10697 10700 10703 10705 10707 10710 10712
10748 10745 10743 10741 10738 10735 10733 10730 10728 10727 10726 10724 10721 10718 10717 10716 10715 10713 10711 10709 10707 10705 10702 10698 10698 10698 10693 10689 10688 10688 10686 10685 10683 10681 10679 10677 10676 10675 10676 10675 10675 10674 10673 10672 10671 10671 10670 10669 10669 10669 10669 10669 10669 10669 10670 10670 10671 10670 10669 10668 10668 10667 10667 10667 10667 10668 10669 10671 10673 10674 10676 10677 10679 10680 10682 10684 10686 10689 10691 10694 10697 10700 10703 10705 10708 10710
10746 10743 10740 10737 10734 10731 10728 10725 10723 10722 10721 10720 10717 10715 10714 10712 10711 10710 10708 10706 10704 10703 10700 10697 10695 10696 10693 10687 10684 10684 10683 10682 10680 10679 10677 10675 10673 10672 10672 10672 10672 10670 10669 10668 10667 10667 10667 10668 10668 10668 10667 10667 10667 10667 10668 10669 10669 10669 10668 10667 10667 10666 10666 10667 10667 10668 10668 10669 10670 10672 10674 10675 10677 10678 10680 10682 10684 10686 10689 10692 10694 10697 10700 10702 10705 10708
10741 10739 10736 10733 10731 10728 10724 10721 10718 10716 10715 10714 10712 10711 10709 10709 10707 10706 10704 10703 10702 10700 10698 10694 10691 10691 10690 10686 10681 10679 10679 10678 10677 10675 10674 10673 10671 10669 10668 10668 10668 10667 10665 10663 10663 10663 10664 10666 10668 10667 10665 10663 10664 10665 10666 10666 10666 10666 10666 10666 10665 10665 10665 10666 10667 10668 10668 10669 10669 10670 10671 10673 10674 10676 10678 10680 10682 10684 10687 10689 10692 10694 10696 10699 10703 10705
10737 10734 10731 10729 10727 10724 10721 10717 10714 10712 10710 10709 10708 10707 10705 10704 10704 10703 10701 10699 10698 10697 10694 10691 10687 10686 10686 10683 10678 10675 10674 10673 10673 10671 10670 10669 10668 10667 10665 10664 10663 10662 10660 10659 10659 10659 10660 10664 10666 10664 10661 10660 10660 10662 10663 10664 10664 10664 10664 10664 10664 10664 10664 10664 10664 10665 10667 10668 10668 10668 10668 10669 10671 10673 10675 10677 10679 10682 10684 10686 10689 10691 10693 10696 10699 10701
10734 10730 10726 10723 10722 10720 10718 10714 10710 10708 10706 10704 10702 10702 10701 10700 10699 10698 10697 10695 10694 10693 10690 10687 10684 10682 10681 10679 10675 10672 10670 10668 10667 10666 10665 10664 10664 10663 10662 10661 10659 10658 10656 10654 10654 10655 10656 10660 10662 10660 10657 10656 10657 10659 10661 10662 10661 10661 10662 10662 10663 10662 10662 10662 10662 10663 10663 10664 10665 10666 10666 10667 10668 10670 10672 10674 10677 10679 10682 10684 10686 10689 10691 10693 10694 10695
10730 10726 10722 10719 10716 10715 10713 10710 10707 10703 10701 10699 10697 10696 10695 10694 10694 10693 10691 10689 10689 10687 10685 10682 10680 10678 10676 10673 10671 10668 10666 10664 10662 10661 10660 10659 10659 10658 10657 10656 10655 10654 10652 10651 10650 10650 10652 10655 10657 10655 10652 10652 10654 10657 10658 10659 10658 10658 10660 10660 10661 10661 10660 10660 10661 10661 10661 10661 10662 10663 10664 10665 10666 10668 10669 10672 10674 10677 10679 10682 10684 10686 10688 10690 10691 10692
10727 10723 10718 10714 10711 10709 10706 10704 10701 10698 10694 10692 10690 10688 10687 10686 10686 10687 10686 10684 10683 10682 10679 10676 10674 10673 10670 10667 10665 10663 10661 10659 10658 10656 10654 10654 10653 10653 10652 10650 10650 10650 10649 10647 10646 10646 10646 10648 10651 10650 10648 10648 10651 10653 10655 10655 10655 10655 10657 10658 10659 10659 10658 10658 10659 10660 10660 10661 10661 10662 10663 10664 10666 10667 10668 10670 10672 10674 10677 10680 10682 10684 10686 10688 10689 10690
10724 10720 10716 10711 10707 10704 10701 10697 10694 10692 10688 10685 10683 10680 10678 10675 10675 10678 10678 10678 10677 10677 10675 10671 10668 10667 10664 10661 10658 10657 10655 10653 10652 10651 10649 10648 10648 10646 10646 10644 10643 10643 10643 10643 10642 10641 10641 10642 10645 10645 10644 10644 10647 10649 10650 10651 10652 10652 10653 10655 10656 10656 10656 10656 10657 10657 10658 10659 10660 10661 10662 10662 10664 10665 10667 10669 10670 10672 10675 10677 10679 10681 10683 10685 10686 10688
10720 10717 10712 10707 10703 10700 10697 10693 10689 10685 10680 10677 10675 10672 10670 10667 10664 10665 10667 10668 10668 10669 10670 10666 10662 10660 10658 10655 10652 10649 10648 10646 10644 10644 10643 10642 10642 10640 10639 10638 10636 10636 10636 10637 10637 10636 10636 10636 10638 10639 10639 10640 10642 10644 10646 10647 10648 10648 10649 10651 10653 10653 10653 10654 10655 10655 10656 10657 10659 10660 10661 10662 10662 10663 10664 10666 10667 10669 10671 10673 10675 10677 10679 10681 10683 10684
10716 10712 10707 10702 10697 10694 10692 10689 10685 10682 10676 10671 10668 10664 10661 10658 10655 10653 10655 10657 10656 10657 10662 10660 10655 10653 10651 10650 10646 10642 10640 10638 10637 10636 10636 10635 10635 10634 10632 10631 10630 10630 10629 10630 10631 10631 10631 10630 10632 10633 10634 10635 10637 10639 10641 10642 10643 10644 10645 10647 10648 10649 10650 10651 10652 10653 10655 10656 10658 10659 10661 10660 10660 10660 10661 10663 10664 10665 10667 10668 10669 10671 10673 10674 10676 10678
10709 10707 10702 10696 10691 10687 10684 10682 10679 10676 10672 10667 10662 10659 10655 10651 10649 10645 10643 10645 10644 10644 10649 10651 10648 10645 10644 10643 10640 10636 10633 10631 10629 10628 10627 10627 10626 10627 10627 10625 10624 10624 10623 10623 10624 10625 10625 10625 10625 10626 10627 10629 10632 10634 10635 10636 10637 10638 10640 10641 10643 10645 10646 10648 10649 10651 10653 10656 10658 10660 10661 10660 10659 10657 10657 10658 10658 10659 10659 10660 10661 10662 10663 10665 10668 10670
10700 10701 10698 10691 10686 10681 10677 10674 10670 10667 10664 10659 10654 10652 10648 10644 10643 10639 10635 10633 10631 10630 10635 10639 10639 10636 10635 10634 10632 10629 10626 10624 10622 10620 10618 10617 10619 10620 10620 10619 10618 10617 10616 10616 10617 10618 10618 10619 10619 10619 10621 10623 10625 10627 10628 10629 10630 10632 10634 10636 10638 10640 10642 10644 10646 10648 10651 10656 10659 10661 10661 10658 10654 10650 10649 10650 10651 10651 10651 10651 10652 10653 10654 10656 10658 10661
10691 10692 10693 10688 10681 10677 10672 10667 10664 10660 10656 10652 10646 10642 10638 10635 10633 10632 10630 10625 10618 10615 10618 10623 10628 10627 10625 10625 10623 10620 10618 10615 10613 10611 10609 10609 10611 10613 10613 10611 10610 10610 10610 10609 10609 10610 10611 10612 10612 10613 10614 10615 10616 10617 10619 10621 10623 10625 10627 10629 10631 10633 10636 10639 10642 10644 10647 10652 10656 10655 10651 10647 10643 10642 10644 10647 10648 10649 10649 10649 10650 10650 10651 10652 10653 10654
10683 10682 10684 10682 10675 10671 10666 10661 10658 10654 10651 10647 10642 10635 10630 10625 10620 10619 10621 10618 10608 10602 10602 10605 10612 10619 10617 10614 10613 10611 10608 10605 10602 10601 10600 10600 10603 10605 10604 10602 10601 10602 10602 10602 10601 10602 10603 10603 10604 10605 10607 10608 10608 10609 10610 10612 10615 10617 10620 10622 10624 10626 10629 10633 10636 10639 10640 10643 10645 10642 10638 10635 10635 10638 10642 10644 10646 10647 10649 10650 10651 10652 10653 10653 10653 10654
10673 10673 10675 10675 10669 10663 10658 10652 10648 10645 10643 10641 10638 10633 10626 10619 10612 10607 10607 10606 10595 10587 10586 10586 10591 10604 10607 10602 10601 10600 10598 10596 10594 10591 10589 10590 10593 10596 10595 10593 10592 10593 10594 10594 10594 10594 10595 10596 10595 10596 10598 10599 10601 10602 10603 10604 10606 10609 10612 10614 10616 10618 10621 10625 10629 10632 10633 10634 10633 10631 10629 10629 10632 10636 10637 10638 10640 10642 10645 10648 10650 10651 10652 10652 10653 10654
10661 10661 10664 10666 10662 10656 10650 10645 10640 10635 10632 10630 10628 10625 10619 10614 10608 10600 10597 10596 10586 10576 10574 10569 10569 10582 10588 10586 10586 10587 10586 10585 10584 10582 10580 10579 10582 10585 10586 10584 10583 10583 10585 10586 10586 10586 10587 10588 10588 10587 10588 10590 10592 10594 10595 10597 10598 10600 10602 10604 10606 10608 10612 10617 10622 10625 10627 10626 10624 10623 10624 10626 10630 10634 10634 10634 10635 10637 10639 10642 10644 10646 10648 10649 10650 10651
10650 10648 10651 10655 10654 10649 10642 10636 10631 10627 10624 10622 10619 10615 10609 10604 10599 10593 10588 10584 10578 10575 10571 10561 10559 10568 10569 10565 10566 10568 10569 10571 10571 10571 10570 10569 10571 10573 10574 10574 10572 10572 10575 10577 10578 10578 10578 10580 10581 10580 10580 10581 10583 10585 10587 10589 10589 10591 10593 10594 10596 10598 10603 10609 10614 10617 10619 10618 10617 10617 10619 10623 10627 10630 10632 10633 10634 10635 10637 10638 10639 10641 10643 10644 10645 10646
10640 10637 10637 10639 10644 10644 10638 10628 10621 10616 10613 10610 10608 10603 10597 10592 10586 10582 10577 10568 10564 10568 10565 10555 10556 10563 10558 10553 10552 10549 10548 10551 10554 10557 10558 10557 10558 10560 10561 10562 10561 10561 10563 10567 10569 10569 10569 10571 10573 10573 10573 10573 10575 10576 10578 10580 10582 10583 10584 10585 10587 10591 10595 10600 10604 10608 10611 10611 10610 10610 10613 10617 10621 10624 10626 10629 10631 10632 10634 10636 10636 10637 10639 10640 10641 10642
10633 10631 10626 10625 10629 10632 10630 10623 10614 10610 10606 10602 10597 10590 10584 10578 10571 10566 10560 10552 10550 10552 10551 10547 10546 10548 10548 10545 10540 10535 10531 10531 10534 10539 10542 10543 10545 10546 10546 10548 10549 10550 10552 10554 10557 10560 10561 10562 10564 10565 10566 10567 10568 10569 10570 10572 10573 10574 10575 10576 10579 10583 10586 10591 10595 10599 10602 10604 10603 10604 10606 10609 10614 10617 10620 10623 10626 10628 10630 10631 10632 10634 10635 10637 10638 10639
10624 10623 10617 10614 10616 10616 10613 10609 10602 10599 10599 10596 10591 10583 10574 10568 10560 10550 10543 10540 10537 10533 10537 10540 10530 10525 10534 10536 10526 10519 10516 10516 10517 10519 10523 10526 10529 10531 10531 10531 10533 10536 10539 10541 10545 10548 10551 10553 10554 10557 10559 10560 10560 10560 10560 10562 10563 10563 10564 10566 10571 10576 10579 10582 10586 10589 10592 10595 10596 10596 10598 10601 10606 10611 10614 10617 10620 10622 10624 10626 10627 10629 10631 10632 10633 10635
10614 10614 10606 10601 10605 10603 10595 10589 10583 10582 10583 10583 10581 10572 10564 10558 10549 10538 10532 10530 10523 10515 10522 10531 10517 10506 10517 10523 10511 10500 10499 10501 10502 10502 10503 10508 10512 10516 10516 10516 10516 10520 10524 10528 10532 10536 10539 10541 10543 10546 10549 10549 10549 10549 10549 10550 10550 10551 10553 10557 10561 10565 10569 10571 10575 10578 10582 10586 10588 10589 10590 10594 10598 10603 10607 10611 10613 10615 10618 10620 10622 10624 10626 10627 10629 10631
10603 10605 10596 10590 10594 10594 10582 10569 10562 10563 10565 10566 10564 10556 10547 10541 10534 10526 10521 10517 10507 10498 10502 10511 10505 10497 10504 10508 10497 10484 10481 10484 10486 10486 10487 10491 10494 10497 10499 10501 10503 10505 10509 10514 10518 10523 10527 10529 10531 10535 10539 10539 10539 10540 10540 10540 10541 10542 10544 10546 10548 10552 10557 10561 10564 10569 10573 10577 10580 10582 10583 10586 10590 10594 10599 10604 10607 10609 10612 10614 10615 10618 10621 10623 10624 10627
10588 10590 10584 10577 10583 10589 10577 10555 10545 10548 10549 10549 10549 10540 10527 10520 10517 10513 10509 10502 10492 10483 10483 10486 10484 10486 10494 10492 10480 10470 10467 10467 10469 10471 10472 10472 10476 10478 10480 10484 10488 10490 10494 10499 10503 10508 10514 10518 10521 10525 10528 10529 10529 10531 10531 10529 10530 10532 10534 10535 10536 10540 10545 10550 10554 10558 10563 10568 10571 10574 10576 10579 10582 10587 10591 10595 10599 10603 10606 10608 10609 10612 10616 10618 10620 10622
10570 10570 10566 10557 10561 10576 10568 10542 10532 10535 10534 10535 10536 10525 10511 10503 10501 10499 10492 10484 10476 10469 10467 10465 10462 10469 10479 10472 10461 10458 10456 10451 10450 10453 10455 10454 10456 10459 10462 10467 10471 10473 10478 10483 10488 10493 10498 10505 10509 10512 10516 10517 10517 10519 10520 10518 10518 10521 10523 10524 10526 10528 10532 10538 10542 10547 10552 10558 10561 10565 10568 10571 10574 10578 10582 10587 10591 10595 10599 10602 10604 10605 10609 10612 10615 10618
10559 10555 10553 10542 10541 10556 10552 10528 10519 10521 10520 10522 10518 10507 10498 10492 10487 10484 10476 10466 10459 10453 10451 10449 10445 10450 10457 10452 10444 10443 10441 10437 10434 10435 10437 10438 10438 10439 10443 10449 10453 10457 10460 10465 10470 10476 10481 10488 10493 10497 10501 10502 10503 10506 10506 10504 10504 10506 10508 10509 10513 10516 10520 10525 10531 10536 10541 10547 10552 10556 10559 10563 10566 10570 10574 10578 10583 10587 10591 10595 10598 10600 10602 10605 10608 10612
10552 10545 10543 10534 10529 10540 10538 10518 10507 10508 10509 10510 10499 10487 10486 10479 10469 10466 10459 10449 10443 10437 10434 10433 10430 10430 10432 10431 10427 10426 10425 10424 10422 10418 10418 10420 10421 10421 10424 10429 10434 10438 10442 10446 10452 10458 10465 10471 10475 10480 10483 10486 10490 10492 10491 10489 10491 10493 10494 10496 10500 10505 10509 10514 10520 10526 10531 10537 10542 10547 10550 10554 10558 10561 10565 10569 10574 10578 10582 10586 10591 10594 10597 10599 10601 10605
10542 10533 10530 10523 10517 10523 10524 10510 10498 10497 10501 10497 10483 10474 10473 10464 10450 10446 10443 10435 10429 10423 10418 10414 10410 10409 10409 10410 10409 10409 10410 10410 10407 10402 10400 10401 10405 10407 10408 10411 10416 10419 10423 10429 10435 10441 10447 10453 10458 10462 10467 10471 10476 10476 10475 10476 10480 10481 10483 10487 10490 10495 10500 10504 10509 10515 10520 10526 10532 10537 10541 10545 10549 10553 10556 10561 10565 10570 10574 10578 10583 10587 10590 10593 10595 10597
10528 10519 10513 10509 10502 10502 10503 10495 10486 10486 10490 10483 10469 10462 10459 10447 10433 10426 10423 10418 10414 10409 10404 10396 10389 10388 10388 10388 10389 10391 10395 10396 10391 10386 10384 10385 10389 10393 10395 10398 10401 10402 10406 10412 10418 10424 10430 10436 10442 10449 10453 10456 10459 10460 10460 10462 10465 10468 10473 10477 10481 10486 10490 10494 10498 10503 10509 10515 10521 10527 10532 10536 10540 10544 10548 10552 10557 10562 10566 10570 10575 10579 10583 10587 10589 10591
10512 10505 10497 10492 10488 10483 10479 10474 10468 10468 10472 10468 10456 10448 10442 10431 10420 10411 10403 10400 10396 10391 10386 10380 10373 10370 10369 10368 10369 10372 10377 10380 10375 10370 10369 10372 10375 10379 10381 10384 10387 10389 10391 10396 10402 10409 10415 10420 10427 10434 10436 10437 10441 10445 10446 10445 10446 10452 10460 10466 10471 10475 10479 10482 10487 10491 10497 10504 10509 10515 10520 10525 10530 10534 10539 10543 10548 10552 10557 10561 10566 10571 10575 10580 10584 10586
10495 10489 10481 10475 10472 10465 10454 10448 10447 10445 10447 10447 10438 10427 10419 10411 10405 10395 10386 10383 10381 10373 10366 10362 10357 10355 10353 10351 10351 10354 10357 10361 10359 10356 10357 10360 10361 10363 10366 10369 10372 10375 10377 10380 10386 10394 10400 10405 10411 10416 10417 10420 10426 10429 10428 10425 10427 10435 10446 10453 10458 10463 10467 10471 10476 10480 10485 10492 10497 10503 10508 10513 10519 10524 10529 10534 10538 10543 10547 10551 10556 10561 10566 10571 10576 10580
10483 10475 10467 10458 10454 10449 10435 10427 10427 10426 10425 10425 10417 10405 10395 10387 10382 10375 10366 10366 10367 10358 10348 10343 10339 10338 10338 10336 10335 10337 10338 10340 10341 10342 10344 10346 10347 10348 10351 10355 10358 10361 10363 10366 10373 10380 10385 10388 10394 10398 10400 10405 10408 10407 10405 10405 10409 10421 10432 10439 10444 10450 10455 10459 10464 10469 10474 10479 10485 10492 10497 10501 10507 10513 10518 10524 10528 10533 10537 10541 10545 10551 10556 10561 10567 10572
10474 10465 10456 10446 10439 10432 10419 10412 10411 10409 10407 10405 10394 10384 10376 10368 10361 10354 10345 10345 10348 10340 10331 10326 10321 10321 10322 10320 10319 10320 10320 10320 10323 10327 10330 10332 10334 10336 10339 10342 10345 10347 10349 10352 10359 10365 10367 10369 10375 10380 10382 10385 10386 10385 10387 10392 10399 10410 10420 10426 10431 10437 10442 10446 10450 10456 10462 10467 10473 10480 10486 10490 10495 10501 10507 10513 10518 10522 10527 10531 10535 10540 10546 10551 10557 10563
10464 10453 10445 10436 10426 10415 10404 10397 10393 10389 10387 10381 10368 10360 10357 10350 10343 10335 10327 10327 10329 10321 10311 10307 10305 10303 10303 10303 10303 10305 10304 10305 10307 10311 10315 10319 10321 10322 10326 10330 10332 10333 10335 10338 10344 10349 10351 10354 10358 10362 10363 10366 10368 10371 10376 10383 10390 10397 10405 10411 10417 10421 10426 10432 10438 10444 10450 10456 10462 10467 10474 10479 10484 10489 10495 10500 10506 10511 10515 10520 10524 10529 10535 10540 10546 10552
10455 10444 10434 10424 10413 10402 10392 10382 10374 10372 10370 10358 10343 10338 10335 10327 10322 10317 10309 10309 10312 10306 10296 10291 10288 10285 10285 10287 10289 10289 10289 10292 10294 10296 10300 10304 10307 10309 10314 10318 10319 10320 10322 10326 10330 10335 10339 10342 10345 10347 10349 10352 10357 10363 10368 10372 10377 10383 10389 10395 10400 10404 10411 10418 10426 10432 10438 10444 10450 10455 10461 10467 10472 10477 10482 10488 10493 10498 10503 10508 10513 10518 10523 10529 10535 10541
10441 10430 10423 10415 10402 10389 10380 10370 10359 10356 10354 10340 10325 10322 10316 10304 10301 10300 10293 10290 10293 10292 10283 10277 10273 10270 10270 10273 10276 10275 10275 10278 10281 10283 10286 10290 10293 10296 10301 10305 10306 10307 10310 10314 10317 10323 10328 10331 10333 10336 10339 10341 10345 10350 10355 10358 10363 10368 10374 10379 10384 10389 10397 10405 10412 10419 10425 10430 10436 10442 10448 10454 10460 10465 10470 10475 10480 10485 10490 10495 10500 10506 10512 10517 10523 10530
10425 10410 10402 10400 10390 10372 10364 10358 10345 10336 10334 10322 10309 10307 10301 10287 10282 10283 10279 10276 10277 10275 10268 10262 10259 10258 10258 10259 10262 10263 10263 10265 10268 10271 10274 10276 10280 10283 10288 10292 10293 10294 10298 10303 10306 10309 10314 10318 10321 10323 10326 10328 10331 10336 10341 10345 10350 10355 10359 10365 10370 10377 10385 10392 10398 10405 10411 10417 10422 10428 10434 10440 10446 10452 10457 10461 10466 10472 10476 10481 10487 10493 10499 10506 10512 10518
10409 10396 10382 10379 10373 10355 10344 10342 10331 10317 10311 10303 10291 10288 10285 10275 10267 10265 10264 10264 10263 10258 10253 10249 10246 10245 10246 10247 10248 10250 10252 10253 10255 10259 10262 10264 10267 10271 10275 10279 10281 10283 10286 10291 10294 10296 10299 10304 10308 10310 10313 10316 10319 10323 10328 10332 10338 10343 10347 10352 10359 10367 10374 10381 10386 10392 10398 10403 10409 10414 10419 10425 10431 10438 10443 10448 10453 10458 10463 10468 10474 10480 10487 10494 10500 10506
10390 10383 10370 10362 10356 10343 10329 10324 10318 10305 10296 10288 10279 10273 10270 10263 10255 10251 10251 10251 10249 10244 10241 10237 10233 10232 10234 10236 10237 10238 10241 10242 10244 10247 10250 10253 10256 10259 10263 10267 10270 10272 10275 10278 10282 10286 10289 10293 10296 10299 10302 10305 10308 10312 10316 10321 10328 10334 10340 10346 10352 10359 10365 10370 10376 10381 10385 10390 10396 10400 10405 10410 10416 10422 10428 10434 10440 10445 10449 10454 10461 10467 10474 10481 10488 10495
10372 10366 10357 10346 10340 10331 10317 10307 10301 10293 10284 10276 10268 10262 10257 10252 10246 10241 10239 10238 10236 10233 10230 10227 10223 10222 10223 10226 10227 10228 10231 10232 10234 10236 10239 10242 10245 10248 10251 10255 10259 10261 10264 10267 10271 10275 10278 10281 10284 10287 10291 10295 10299 10303 10307 10312 10320 10326 10333 10339 10344 10348 10353 10359 10364 10369 10373 10377 10382 10387 10392 10397 10403 10408 10414 10421 10427 10432 10436 10441 10447 10453 10460 10468 10476 10483
10359 10348 10340 10330 10322 10315 10305 10294 10284 10276 10270 10265 10259 10251 10246 10242 10237 10233 10230 10228 10225 10223 10221 10218 10215 10213 10214 10217 10218 10219 10221 10223 10226 10227 10229 10232 10236 10238 10241 10245 10248 10250 10254 10257 10260 10263 10267 10269 10272 10275 10279 10284 10289 10294 10298 10303 10309 10315 10321 10327 10331 10335 10340 10345 10350 10356 10361 10365 10369 10374 10380 10385 10390 10395 10401 10407 10413 10419 10423 10427 10433 10440 10447 10454 10463 10470
10344 10333 10323 10314 10306 10299 10291 10283 10272 10262 10255 10252 10248 10244 10239 10234 10227 10223 10222 10220 10217 10215 10212 10209 10207 10206 10205 10207 10209 10210 10212 10214 10217 10219 10221 10224 10227 10229 10232 10235 10237 10240 10243 10246 10249 10253 10256 10259 10263 10265 10269 10273 10277 10283 10290 10295 10298 10303 10308 10313 10318 10322 10327 10332 10337 10343 10348 10353 10358 10362 10367 10373 10378 10383 10387 10393 10398 10405 10411 10415 10420 10427 10434 10442 10449 10458
10329 10320 10311 10301 10293 10285 10278 10272 10264 10254 10245 10239 10235 10233 10231 10228 10222 10216 10213 10211 10209 10207 10205 10202 10200 10198 10198 10199 10201 10203 10204 10205 10208 10212 10214 10215 10218 10221 10223 10226 10228 10231 10234 10237 10240 10244 10247 10251 10254 10258 10261 10264 10267 10273 10280 10285 10288 10291 10295 10300 10304 10309 10314 10320 10324 10330 10336 10342 10347 10351 10355 10359 10365 10370 10375 10380 10386 10393 10399 10404 10409 10416 10423 10429 10436 10444
10314 10307 10299 10290 10280 10272 10265 10259 10254 10248 10240 10231 10225 10222 10220 10219 10216 10211 10207 10204 10201 10200 10198 10196 10193 10191 10191 10192 10193 10196 10197 10197 10200 10204 10206 10207 10209 10212 10214 10217 10220 10223 10226 10229 10233 10236 10240 10243 10246 10250 10254 10257 10259 10263 10269 10275 10279 10282 10285 10289 10293 10297 10303 10308 10312 10319 10325 10330 10335 10340 10343 10347 10353 10358 10364 10370 10376 10382 10389 10394 10399 10405 10412 10417 10423 10430
10303 10295 10288 10280 10271 10262 10254 10248 10244 10241 10235 10227 10220 10216 10212 10210 10208 10204 10202 10199 10196 10193 10191 10189 10187 10185 10185 10185 10187 10189 10190 10190 10192 10197 10200 10200 10201 10203 10206 10209 10212 10215 10218 10222 10225 10229 10233 10236 10239 10243 10246 10248 10251 10256 10261 10265 10270 10273 10277 10280 10283 10287 10292 10297 10301 10307 10313 10318 10324 10328 10332 10337 10342 10347 10352 10358 10364 10370 10376 10382 10387 10393 10400 10404 10409 10416